DateTimeUTC,F1_A11,F1_S11,BsB_S11,BsG_S11,BsR_S11,BbsB_S11,BbsG_S11,BbsR_S11,BaB_A11,BaG_A11,BaR_A11,Tu_S11,T_S11,Uu_S11,U_S11,P_S11,T1_A11
2021-10-24T04:00:00Z,00000200,21000000,,,,,,,0000.07,-000.28,-000.12,17.7,24.6,,00.0,0642.4,31.0
2021-10-24T04:01:00Z,00000200,21000000,,,,,,,0000.27,0000.29,0000.18,17.7,24.6,,00.0,0642.4,31.0
2021-10-24T04:02:00Z,00000200,21000000,,,,,,,-000.35,-000.16,-000.09,17.7,24.6,,00.0,0642.4,31.0
2021-10-24T04:03:00Z,00000200,61000000,,,,,,,-000.26,0000.22,-000.27,17.7,24.7,,00.0,0642.4,31.1
2021-10-24T04:04:00Z,00000200,41000000,0000.97,0000.47,0000.08,-000.32,-000.12,-000.14,0000.23,-000.34,0000.37,18.1,24.6,,00.0,0643.3,31.1
2021-10-24T04:05:00Z,00000200,01000000,0000.48,0000.25,-000.04,-000.57,-000.03,0000.25,0000.36,0000.26,-000.07,18.2,24.6,,00.0,0643.4,31.1
2021-10-24T04:06:00Z,00000200,01000000,0000.51,0000.14,0000.15,0000.13,-000.02,-000.05,0000.08,0000.19,0000.08,18.2,24.6,,00.0,0643.4,31.1
2021-10-24T04:07:00Z,00000200,01000000,0000.89,-000.05,-000.02,0000.51,-000.03,0000.12,-000.08,0000.15,0000.04,18.3,24.6,,00.0,0643.3,31.1
2021-10-24T04:08:00Z,00000200,01000000,0000.17,0000.09,0000.28,0001.16,0000.08,0000.21,0000.01,-000.16,-000.20,18.3,24.6,,00.0,0643.4,31.1
2021-10-24T04:09:00Z,00000200,01000000,0000.29,0000.01,-000.00,0000.43,0000.11,-000.23,-000.27,-000.12,0000.19,18.2,24.6,,00.0,0643.4,31.0
2021-10-24T04:10:00Z,00000200,01000000,0000.32,0000.08,0000.06,-000.27,-000.11,-000.24,-000.10,-000.17,-000.39,18.1,24.6,,00.0,0643.4,31.0
2021-10-24T04:11:00Z,00000200,01000000,-000.70,-000.18,-000.04,-000.00,-000.07,0000.09,-000.10,-000.35,0000.11,18.0,24.5,,00.0,0643.5,31.0
2021-10-24T04:12:00Z,00000200,01000000,0000.53,0000.17,-000.11,-000.12,-000.37,-000.11,0000.33,0000.40,0000.01,18.0,24.5,,00.0,0643.4,31.0
2021-10-24T04:13:00Z,00000200,01000000,0000.69,0000.09,-000.10,0000.09,-000.12,0000.09,0000.03,0000.30,0000.10,18.0,24.5,,00.0,0643.4,31.0
2021-10-24T04:14:00Z,00000200,01000000,0000.57,-000.19,-000.18,-000.35,0000.08,-000.47,0000.21,0000.20,0000.28,18.1,24.5,,00.0,0643.4,31.0
2021-10-24T04:15:00Z,00000200,01000000,0000.19,0000.01,0000.29,0000.21,-000.11,0000.13,0000.03,0000.10,0000.25,18.1,24.5,,00.0,0643.4,31.0
2021-10-24T04:16:00Z,00000200,01000000,-000.00,0000.30,0000.09,0000.11,-000.30,0000.06,0000.15,-000.37,-000.04,18.2,24.5,,00.0,0643.4,31.0
2021-10-24T04:17:00Z,00000200,01000000,0000.23,0000.25,-000.42,-000.18,-000.28,0000.15,-000.11,0000.24,-000.09,18.2,24.6,,00.0,0643.4,31.0
2021-10-24T04:18:00Z,00000200,01000000,0000.56,0000.21,-000.07,0000.63,-000.21,0000.01,-000.06,-000.08,0000.22,18.3,24.6,,00.0,0643.4,31.1
2021-10-24T04:19:00Z,00000200,01000000,0000.44,-000.00,-000.14,-000.35,-000.23,0000.17,0000.32,-000.07,-000.27,18.3,24.6,,00.0,0643.3,31.1
2021-10-24T04:20:00Z,00000200,01000000,-000.04,0000.46,-000.08,-000.28,0000.05,-000.10,0000.22,0000.69,0000.38,18.3,24.6,,00.0,0643.3,31.1
2021-10-24T04:21:00Z,00000200,01000000,0000.53,-000.02,-000.05,0000.88,-000.18,0000.10,0000.00,-000.16,-000.18,18.3,24.6,,00.0,0643.2,31.0
2021-10-24T04:22:00Z,00000200,01000000,0000.81,0000.23,0000.53,-000.18,-000.39,0000.20,-000.24,-000.31,-000.13,18.2,24.6,,00.0,0643.1,31.0
2021-10-24T04:23:00Z,00000200,01000000,-000.14,0000.42,0000.05,0000.52,-000.14,-000.00,0000.04,-000.26,-000.01,18.1,24.5,,00.0,0643.1,31.0
2021-10-24T04:24:00Z,00000200,01000000,-000.13,0000.32,0000.31,-000.42,0000.31,0000.35,-000.12,-000.01,0000.05,18.0,24.5,,00.0,0643.1,31.0
2021-10-24T04:25:00Z,00000200,01000000,0000.69,0000.02,0000.03,0000.20,0000.09,0000.03,0000.27,0000.35,-000.03,17.9,24.5,,00.0,0643.0,31.0
2021-10-24T04:26:00Z,00000200,01000000,0000.57,0000.41,0000.14,-000.13,0000.02,0000.10,-000.14,0000.13,-000.29,17.9,24.4,,00.0,0643.0,31.0
2021-10-24T04:27:00Z,00000200,01000000,0000.32,0000.07,-000.24,0000.07,-000.10,-000.08,0000.06,-000.35,0000.46,17.8,24.4,,00.0,0643.1,31.0
2021-10-24T04:28:00Z,00000200,01000000,0000.44,0000.31,-000.09,-000.31,-000.25,-000.18,0000.53,0000.14,-000.05,17.8,24.4,,00.0,0643.1,31.0
2021-10-24T04:29:00Z,00000200,01000000,-000.34,0000.12,-000.14,0000.37,0000.09,-000.14,-000.07,0000.25,0000.39,17.9,24.4,,00.0,0643.0,31.0
2021-10-24T04:30:00Z,00000200,01000000,-000.36,0000.15,-000.20,0000.69,-000.09,-000.32,-000.08,0000.42,-000.18,17.9,24.4,,00.0,0643.1,31.0
2021-10-24T04:31:00Z,00000200,01000000,-000.10,0000.05,-000.18,-000.26,-000.19,-000.20,0000.51,-000.15,0000.10,18.0,24.4,,00.0,0643.0,31.0
2021-10-24T04:32:00Z,00000200,01000000,0000.91,0000.41,0000.05,0000.39,-000.13,0000.15,-000.44,-000.05,0000.12,18.0,24.4,,00.0,0643.1,31.0
2021-10-24T04:33:00Z,00000200,01000000,0001.30,0000.09,0000.03,0000.82,-000.23,-000.11,0000.33,0000.04,0000.34,18.0,24.4,,00.0,0643.1,31.0
2021-10-24T04:34:00Z,00000200,01000000,0000.39,-000.01,-000.06,-000.02,-000.14,-000.21,0000.26,0000.22,0000.07,18.1,24.5,,00.0,0643.0,31.0
2021-10-24T04:35:00Z,00000200,01000000,0000.86,0000.11,0000.31,0000.19,0000.00,0000.09,-000.05,0000.08,0000.02,18.1,24.5,,00.0,0643.0,31.0
2021-10-24T04:36:00Z,00000200,01010000,-000.02,0000.40,0000.04,-000.21,0000.02,0000.17,-000.02,0000.22,0000.01,18.2,24.5,,00.0,0643.0,31.0
2021-10-24T04:37:00Z,00000200,01000000,0001.11,-000.04,-000.17,0000.08,-000.13,0000.01,0000.12,0000.13,-000.13,18.2,24.5,,00.0,0642.9,31.1
2021-10-24T04:38:00Z,00000200,01000000,0000.36,-000.04,-000.22,-000.26,-000.03,-000.11,-000.21,-000.41,0000.07,18.1,24.5,,00.0,0643.0,31.0
2021-10-24T04:39:00Z,00000200,01000000,0000.39,0000.28,0000.06,-000.74,-000.13,-000.10,0000.28,0000.19,-000.30,18.0,24.4,,00.0,0642.9,31.0
2021-10-24T04:40:00Z,00000200,01000000,0000.72,-000.02,-000.19,0000.28,0000.24,-000.26,-000.28,-000.25,0000.03,17.9,24.4,,00.0,0642.9,31.0
2021-10-24T04:41:00Z,00000200,01000000,0000.11,0000.36,-000.17,0000.48,-000.13,0000.13,0000.06,0000.00,0000.14,17.9,24.3,,00.0,0642.9,31.0
2021-10-24T04:42:00Z,00000200,01000000,0000.92,0000.29,0000.17,0000.31,-000.09,-000.02,0000.15,0000.39,0000.20,17.8,24.3,,00.0,0642.9,31.0
2021-10-24T04:43:00Z,00000200,01000000,-000.33,0000.33,0000.34,0000.04,-000.11,0000.52,0000.02,-000.24,-000.11,17.8,24.3,,00.0,0642.9,31.0
2021-10-24T04:44:00Z,00000200,01000000,-000.16,0000.32,0000.36,0000.10,0000.13,0000.20,0000.40,0000.43,-000.21,17.8,24.3,,00.0,0642.9,31.0
2021-10-24T04:45:00Z,00000200,01000000,0000.52,-000.03,-000.03,-000.60,-000.06,0000.16,-000.13,-000.26,0000.46,17.9,24.3,,00.0,0643.0,31.0
2021-10-24T04:46:00Z,00000200,01000000,0000.36,0000.10,-000.04,-000.31,0000.07,-000.10,-000.01,0000.58,-000.05,17.9,24.4,,00.0,0642.9,31.0
2021-10-24T04:47:00Z,00000200,01000000,0000.09,-000.22,-000.13,-000.10,0000.27,0000.01,0000.21,-000.07,0000.16,17.9,24.4,,00.0,0642.9,31.0
2021-10-24T04:48:00Z,00000200,01000000,0000.78,-000.01,-000.02,-000.39,0000.16,-000.37,0000.38,0000.13,0000.10,18.0,24.4,,00.0,0642.9,31.0
2021-10-24T04:49:00Z,00000200,01000000,0000.11,0000.42,-000.11,-000.07,-000.03,0000.08,-000.19,0000.21,0000.25,18.0,24.4,,00.0,0642.9,31.0
2021-10-24T04:50:00Z,00000200,01000000,-000.03,0000.31,0000.02,-000.27,-000.08,0000.18,0000.02,0000.28,-000.05,18.0,24.4,,00.0,0642.9,31.0
2021-10-24T04:51:00Z,00000200,01000000,0000.53,0000.27,0000.06,-000.23,0000.04,0000.27,-000.07,-000.02,0000.05,18.1,24.4,,00.0,0642.9,31.0
2021-10-24T04:52:00Z,00000200,01000000,-000.09,0000.21,0000.01,0000.36,0000.10,0000.12,-000.06,-000.29,0000.22,18.0,24.5,,00.0,0642.8,31.0
2021-10-24T04:53:00Z,00000200,01000000,0000.71,-000.02,-000.26,0000.68,-000.34,-000.11,-000.31,-000.49,-000.74,18.0,24.4,,00.0,0642.8,31.0
2021-10-24T04:54:00Z,00000200,01000000,0000.44,0000.04,0000.30,-000.21,-000.11,0000.10,0000.40,0000.07,-000.06,17.9,24.4,,00.0,0642.9,31.0
2021-10-24T04:55:00Z,00000200,01000000,0000.63,0000.11,-000.09,0000.74,0000.05,0000.06,-000.28,0000.24,-000.02,17.8,24.3,,00.0,0642.8,31.0
2021-10-24T04:56:00Z,00000200,01000000,0000.17,-000.04,-000.37,-000.27,-000.13,-000.18,0000.21,-000.04,0000.27,17.7,24.3,,00.0,0642.8,31.0
2021-10-24T04:57:00Z,00000200,41000000,,,,,,,-000.48,-000.25,0000.12,17.8,24.3,,00.0,0642.8,31.0
2021-10-24T04:58:00Z,00000200,61000000,,,,,,,0000.54,0000.13,-000.27,17.5,24.4,,00.0,0641.9,31.0
2021-10-24T04:59:00Z,00000200,21000000,,,,,,,0000.27,-000.10,0000.32,17.5,24.5,,00.0,0641.9,31.0
